Weather History for ROIG - September, 2013

Change the Weather History Date:

Friday, September 6, 2013

  Actual Average Record
Temperature  
Mean Temperature 84 °F -  
Max Temperature 89 °F 82 °F 93 °F (2014)
Min Temperature 79 °F 75 °F 71 °F (2005)
Cooling Degree Days 18    
Growing Degree Days 34 (Base 50)    
Moisture  
Dew Point 73 °F    
Average Humidity 70    
Maximum Humidity 83    
Minimum Humidity 54    
Precipitation  
Precipitation 0.00 in - - ()
Sea Level Pressure  
Sea Level Pressure 29.92 in    
Wind  
Wind Speed 8 mph ()    
Max Wind Speed 12 mph    
Max Gust Speed -    
Visibility 9.2 miles    
Events      
Averages and records for this station are not official NWS values.
T = Trace of Precipitation, MM = Missing Value Source: Averaged Metar Reports

Daily Weather History Graph

Daily Weather History Graph

Search for Another Location

Airport or City:

Trip Planner

Search our weather history database for the weather conditions in past years. The results will help you decide how hot, cold, wet, or windy it might be!

Date:

Astronomy

Sep. 06, 2013 Rise Set
Actual Time 6:26 AM JST 6:56 PM JST
Civil Twilight 6:03 AM JST 7:19 PM JST
Nautical Twilight 5:36 AM JST 7:46 PM JST
Astronomical Twilight 5:09 AM JST 8:13 PM JST
Moon 6:53 AM JST (9/6) 7:14 PM JST (9/6)
Length of Visible Light 13h 16m
Length of Day
12h 30m
New Moon, 0% of the Moon is Illuminated
Sep 6
New Moon
Sep 13
First Quarter
Sep 19
Full
Sep 27
Last Quarter
Oct 5
New

Hourly Weather History & Observations

Time (JST) Temp. Heat Index Dew Point Humidity Pressure Visibility Wind Dir Wind Speed Gust Speed Precip Events Conditions
12:00 AM 80 °F - 75 °F 80% 29.94 in - ENE 5.8 mph - -  
3:00 AM 81 °F - 75 °F 77% 29.92 in 12 mi East 5.8 mph - -   Partly Cloudy
6:00 AM 80 °F - 75 °F 81% 29.94 in 12 mi ENE 5.8 mph - -   Scattered Clouds
6:00 AM 78.8 °F - 73.4 °F 83% 29.92 in 6.2 mi ENE 6.9 mph - N/A   Mostly Cloudy
7:00 AM 80.6 °F 84.6 °F 71.6 °F 74% 29.92 in 6.2 mi East 8.1 mph - N/A   Scattered Clouds
8:00 AM 82.4 °F 88.2 °F 73.4 °F 74% 29.95 in 6.2 mi East 9.2 mph - N/A   Scattered Clouds
9:00 AM 85 °F - 74 °F 62% 29.95 in 19 mi East 11.5 mph - -   Scattered Clouds
9:00 AM 82.4 °F 88.2 °F 73.4 °F 74% 29.95 in 6.2 mi ENE 10.4 mph - N/A   Scattered Clouds
10:00 AM 84.2 °F 90.9 °F 73.4 °F 70% 29.95 in 6.2 mi ENE 10.4 mph - N/A   Scattered Clouds
11:00 AM 86.0 °F 93.4 °F 73.4 °F 66% 29.95 in 6.2 mi ENE 11.5 mph - N/A   Scattered Clouds
12:00 PM 88 °F - 74 °F 54% 29.95 in 19 mi ENE 10.4 mph - -   Scattered Clouds
12:00 PM 86.0 °F 93.4 °F 73.4 °F 66% 29.92 in 6.2 mi ENE 11.5 mph - N/A   Partly Cloudy
1:00 PM 86.0 °F 93.4 °F 73.4 °F 66% 29.92 in 6.2 mi ENE 9.2 mph - N/A   Partly Cloudy
2:00 PM 86.0 °F 93.4 °F 73.4 °F 66% 29.89 in 6.2 mi East 10.4 mph - N/A   Partly Cloudy
3:00 PM 86 °F - 74 °F 61% 29.91 in 19 mi ENE 10.4 mph - -   Partly Cloudy
3:00 PM 82.4 °F 88.2 °F 73.4 °F 74% 29.89 in 6.2 mi ENE 11.5 mph - N/A   Scattered Clouds
4:00 PM 86.0 °F 93.4 °F 73.4 °F 66% 29.89 in 6.2 mi ENE 11.5 mph - N/A   Partly Cloudy
5:00 PM 84.2 °F 90.9 °F 73.4 °F 70% 29.89 in 6.2 mi ENE 10.4 mph - N/A   Partly Cloudy
6:00 PM 84 °F - 74 °F 65% 29.91 in 12 mi ENE 10.4 mph - -   Scattered Clouds
6:00 PM 82.4 °F 87.2 °F 71.6 °F 70% 29.89 in 6.2 mi ENE 10.4 mph - N/A   Partly Cloudy
7:00 PM 80.6 °F 83.9 °F 69.8 °F 70% 29.89 in 6.2 mi ENE 9.2 mph - N/A   Partly Cloudy
8:00 PM 80.6 °F 84.6 °F 71.6 °F 74% 29.92 in 6.2 mi NE 11.5 mph - N/A   Partly Cloudy
9:00 PM 81 °F - 73 °F 72% 29.95 in 16 mi NE 6.9 mph - -   Scattered Clouds